JES3386 SABE-SAZM

Flight info

Callsign JES3386
Flight time 0h 42m
Altitude 27000
Route GBE1A GBE UW29 VOTRA VOTRA1Q
Aircraft A320/M-SDE3FGHIRWY/LB1

Departure

Time 2026-05-06 17:44
Airport Aeroparque Jorge Newbery (SABE)

Arrival

Time 2026-05-06 18:26
Airport Ástor Piazzola International Airport (SAZM)
Time Latitude Longitude Altitude Speed Heading
2026-05-06 17:10 -34.55781 -58.41281 27 ft 0 kts 40°
2026-05-06 17:11 -34.55804 -58.41246 27 ft 0 kts 40°
2026-05-06 17:36 -34.55823 -58.41261 27 ft 4 kts 11°
2026-05-06 17:36 -34.55845 -58.41257 27 ft 4 kts 314°
2026-05-06 17:36 -34.55853 -58.41246 27 ft 1 kts 302°
2026-05-06 17:37 -34.55853 -58.41245 27 ft 0 kts 302°
2026-05-06 17:39 -34.55851 -58.41250 27 ft 3 kts 302°
2026-05-06 17:39 -34.55829 -58.41291 27 ft 8 kts 302°
2026-05-06 17:40 -34.55794 -58.41358 27 ft 11 kts 302°
2026-05-06 17:40 -34.55749 -58.41443 27 ft 13 kts 302°
2026-05-06 17:40 -34.55733 -58.41546 27 ft 13 kts 223°
2026-05-06 17:40 -34.55782 -58.41633 27 ft 14 kts 285°
2026-05-06 17:41 -34.55737 -58.41745 29 ft 16 kts 298°
2026-05-06 17:41 -34.55673 -58.41874 26 ft 19 kts 304°
2026-05-06 17:41 -34.55595 -58.42012 27 ft 21 kts 304°
2026-05-06 17:41 -34.55504 -58.42162 27 ft 23 kts 309°
2026-05-06 17:42 -34.55396 -58.42321 27 ft 26 kts 307°
2026-05-06 17:42 -34.55365 -58.42399 27 ft 1 kts 253°
2026-05-06 17:42 -34.55364 -58.42428 27 ft 6 kts 274°
2026-05-06 17:42 -34.55370 -58.42498 27 ft 11 kts 231°
2026-05-06 17:43 -34.55415 -58.42487 27 ft 1 kts 122°
2026-05-06 17:43 -34.55416 -58.42485 27 ft 0 kts 125°
2026-05-06 17:43 -34.55518 -58.42305 29 ft 62 kts 124°
2026-05-06 17:44 -34.55883 -58.41649 28 ft 122 kts 123°
2026-05-06 17:44 -34.56443 -58.40645 107 ft 160 kts 123°
2026-05-06 17:44 -34.57073 -58.39538 756 ft 158 kts 120°
2026-05-06 17:44 -34.57599 -58.38410 1326 ft 157 kts 106°
2026-05-06 17:45 -34.57768 -58.37066 1500 ft 169 kts 71°
2026-05-06 17:45 -34.57165 -58.35845 1725 ft 174 kts 36°
2026-05-06 17:45 -34.56141 -58.35026 2026 ft 180 kts 24°
2026-05-06 17:45 -34.54995 -58.34287 2302 ft 195 kts 21°
2026-05-06 17:46 -34.53711 -58.33535 2641 ft 217 kts 20°
2026-05-06 17:46 -34.52318 -58.32547 3051 ft 248 kts 31°
2026-05-06 17:46 -34.51089 -58.30919 3696 ft 277 kts 51°
2026-05-06 17:46 -34.50456 -58.28704 4798 ft 283 kts 76°
2026-05-06 17:47 -34.50596 -58.26309 5944 ft 290 kts 99°
2026-05-06 17:47 -34.51478 -58.24062 6806 ft 308 kts 124°
2026-05-06 17:47 -34.53158 -58.22448 7481 ft 322 kts 158°
2026-05-06 17:47 -34.53284 -58.22384 7525 ft 322 kts 160°
2026-05-06 17:48 -34.55458 -58.21923 8363 ft 322 kts 180°
2026-05-06 17:48 -34.57691 -58.21523 9247 ft 330 kts 164°
2026-05-06 17:48 -34.59800 -58.20379 10029 ft 339 kts 151°
2026-05-06 17:48 -34.61843 -58.18772 10341 ft 360 kts 143°
2026-05-06 17:49 -34.63873 -58.16916 10940 ft 369 kts 142°
2026-05-06 17:49 -34.65930 -58.15004 11612 ft 375 kts 143°
2026-05-06 17:49 -34.68053 -58.13115 12305 ft 381 kts 145°
2026-05-06 17:49 -34.70242 -58.11278 13008 ft 385 kts 147°
2026-05-06 17:50 -34.72494 -58.09477 13683 ft 389 kts 149°
2026-05-06 17:50 -34.74792 -58.07694 14287 ft 393 kts 149°
2026-05-06 17:50 -34.77111 -58.05911 14908 ft 397 kts 150°
2026-05-06 17:50 -34.79455 -58.04108 15534 ft 400 kts 150°
2026-05-06 17:51 -34.81780 -58.02307 16155 ft 403 kts 150°
2026-05-06 17:51 -34.84224 -58.00542 16769 ft 404 kts 160°
2026-05-06 17:51 -34.86852 -57.99581 17366 ft 397 kts 178°
2026-05-06 17:51 -34.89576 -57.99577 17999 ft 388 kts 196°
2026-05-06 17:52 -34.92113 -58.00497 18573 ft 377 kts 211°
2026-05-06 17:52 -34.94505 -58.01818 19179 ft 379 kts 212°
2026-05-06 17:52 -34.96916 -58.03156 19792 ft 381 kts 212°
2026-05-06 17:52 -34.99340 -58.04498 20389 ft 384 kts 212°
2026-05-06 17:53 -35.01780 -58.05847 20964 ft 387 kts 211°
2026-05-06 17:53 -35.04245 -58.07203 21511 ft 390 kts 211°
2026-05-06 17:53 -35.06726 -58.08563 22085 ft 392 kts 211°
2026-05-06 17:53 -35.09220 -58.09931 22655 ft 394 kts 211°
2026-05-06 17:54 -35.11695 -58.11288 23214 ft 396 kts 211°
2026-05-06 17:54 -35.14215 -58.12670 23688 ft 398 kts 211°
2026-05-06 17:54 -35.16749 -58.14066 24131 ft 401 kts 211°
2026-05-06 17:54 -35.19295 -58.15472 24560 ft 404 kts 211°
2026-05-06 17:55 -35.21859 -58.16891 24988 ft 406 kts 211°
2026-05-06 17:55 -35.24443 -58.18322 25421 ft 409 kts 211°
2026-05-06 17:55 -35.27043 -58.19761 25860 ft 411 kts 211°
2026-05-06 17:55 -35.29660 -58.21206 26240 ft 416 kts 211°
2026-05-06 17:56 -35.32311 -58.22670 26642 ft 419 kts 211°
2026-05-06 17:56 -35.34958 -58.24130 26774 ft 417 kts 211°
2026-05-06 17:56 -35.37572 -58.25565 26711 ft 401 kts 211°
2026-05-06 17:56 -35.40085 -58.26942 26789 ft 393 kts 212°
2026-05-06 17:57 -35.42531 -58.28293 26797 ft 390 kts 212°
2026-05-06 17:57 -35.44993 -58.29663 26796 ft 389 kts 212°
2026-05-06 17:57 -35.47456 -58.31038 26799 ft 388 kts 212°
2026-05-06 17:57 -35.49917 -58.32412 26800 ft 388 kts 212°
2026-05-06 17:58 -35.52374 -58.33783 26796 ft 388 kts 212°
2026-05-06 17:58 -35.54835 -58.35154 26797 ft 388 kts 212°
2026-05-06 17:58 -35.57295 -58.36526 26823 ft 388 kts 212°
2026-05-06 17:58 -35.59739 -58.37889 26797 ft 384 kts 212°
2026-05-06 17:59 -35.62170 -58.39242 26794 ft 382 kts 212°
2026-05-06 17:59 -35.64585 -58.40591 26796 ft 382 kts 212°
2026-05-06 17:59 -35.67007 -58.41947 26795 ft 382 kts 212°
2026-05-06 17:59 -35.69392 -58.43283 26798 ft 382 kts 212°
2026-05-06 18:00 -35.71833 -58.44560 26796 ft 387 kts 206°
2026-05-06 18:00 -35.74498 -58.45330 26797 ft 398 kts 195°
2026-05-06 18:00 -35.77121 -58.45452 26797 ft 408 kts 184°
2026-05-06 18:00 -35.79951 -58.44897 26798 ft 418 kts 172°
2026-05-06 18:01 -35.82761 -58.43976 26796 ft 418 kts 172°
2026-05-06 18:01 -35.85582 -58.43051 26794 ft 419 kts 172°
2026-05-06 18:01 -35.88399 -58.42129 26793 ft 420 kts 172°
2026-05-06 18:01 -35.91221 -58.41206 26794 ft 420 kts 172°
2026-05-06 18:02 -35.94048 -58.40281 26793 ft 420 kts 172°
2026-05-06 18:02 -35.96876 -58.39356 26795 ft 421 kts 172°
2026-05-06 18:02 -35.99669 -58.38442 26797 ft 421 kts 172°
2026-05-06 18:02 -36.02498 -58.37516 26816 ft 421 kts 171°
2026-05-06 18:03 -36.05335 -58.36587 26806 ft 422 kts 171°
2026-05-06 18:03 -36.08181 -58.35653 26808 ft 423 kts 171°
2026-05-06 18:03 -36.11021 -58.34716 26806 ft 423 kts 171°
2026-05-06 18:03 -36.13864 -58.33775 26794 ft 423 kts 171°
2026-05-06 18:04 -36.16712 -58.32835 26792 ft 423 kts 171°
2026-05-06 18:04 -36.19559 -58.31897 26792 ft 424 kts 171°
2026-05-06 18:04 -36.22405 -58.30959 26794 ft 424 kts 171°
2026-05-06 18:04 -36.25225 -58.30034 26797 ft 425 kts 171°
2026-05-06 18:05 -36.28080 -58.29091 26790 ft 425 kts 171°
2026-05-06 18:05 -36.30928 -58.28147 26791 ft 425 kts 171°
2026-05-06 18:05 -36.33788 -58.27202 26788 ft 422 kts 171°
2026-05-06 18:05 -36.36603 -58.26267 26576 ft 414 kts 171°
2026-05-06 18:06 -36.39366 -58.25349 26233 ft 410 kts 171°
2026-05-06 18:06 -36.42113 -58.24435 25839 ft 407 kts 171°
2026-05-06 18:06 -36.44842 -58.23529 25436 ft 405 kts 171°
2026-05-06 18:06 -36.47560 -58.22629 25050 ft 402 kts 171°
2026-05-06 18:07 -36.50221 -58.21747 24662 ft 400 kts 171°
2026-05-06 18:07 -36.52939 -58.20842 24267 ft 398 kts 171°
2026-05-06 18:07 -36.55568 -58.19967 23876 ft 396 kts 171°
2026-05-06 18:07 -36.58225 -58.19084 23502 ft 393 kts 171°
2026-05-06 18:08 -36.60856 -58.18210 23118 ft 390 kts 171°
2026-05-06 18:08 -36.63467 -58.17345 22693 ft 387 kts 171°
2026-05-06 18:08 -36.66065 -58.16483 22272 ft 385 kts 171°
2026-05-06 18:08 -36.68647 -58.15622 21855 ft 383 kts 171°
2026-05-06 18:09 -36.71208 -58.14764 21454 ft 380 kts 171°
2026-05-06 18:09 -36.73755 -58.13910 21042 ft 378 kts 171°
2026-05-06 18:09 -36.76291 -58.13058 20631 ft 376 kts 171°
2026-05-06 18:09 -36.78780 -58.12223 20311 ft 374 kts 171°
2026-05-06 18:10 -36.81287 -58.11385 20028 ft 373 kts 171°
2026-05-06 18:10 -36.83785 -58.10549 19722 ft 371 kts 171°
2026-05-06 18:10 -36.86271 -58.09713 19406 ft 369 kts 171°
2026-05-06 18:10 -36.88741 -58.08879 19098 ft 367 kts 171°
2026-05-06 18:11 -36.91203 -58.08052 18758 ft 365 kts 171°
2026-05-06 18:11 -36.93655 -58.07230 18399 ft 364 kts 172°
2026-05-06 18:11 -36.96096 -58.06411 18054 ft 363 kts 171°
2026-05-06 18:11 -36.98532 -58.05589 17613 ft 363 kts 171°
2026-05-06 18:12 -37.00937 -58.04778 17225 ft 362 kts 171°
2026-05-06 18:12 -37.03358 -58.03963 16858 ft 360 kts 171°
2026-05-06 18:12 -37.05777 -58.03152 16513 ft 358 kts 171°
2026-05-06 18:12 -37.08188 -58.02427 16147 ft 355 kts 174°
2026-05-06 18:13 -37.10611 -58.01839 15727 ft 355 kts 176°
2026-05-06 18:13 -37.13047 -58.01325 15314 ft 354 kts 177°
2026-05-06 18:13 -37.15483 -58.00835 14941 ft 354 kts 176°
2026-05-06 18:13 -37.17909 -58.00340 14563 ft 353 kts 176°
2026-05-06 18:14 -37.20330 -57.99829 14189 ft 353 kts 176°
2026-05-06 18:14 -37.22746 -57.99304 13824 ft 352 kts 175°
2026-05-06 18:14 -37.25159 -57.98765 13436 ft 352 kts 175°
2026-05-06 18:14 -37.27528 -57.98227 13029 ft 351 kts 175°
2026-05-06 18:15 -37.29931 -57.97682 12617 ft 350 kts 174°
2026-05-06 18:15 -37.32322 -57.97138 12220 ft 349 kts 174°
2026-05-06 18:15 -37.34708 -57.96599 11827 ft 348 kts 174°
2026-05-06 18:15 -37.37087 -57.96063 11439 ft 347 kts 173°
2026-05-06 18:16 -37.39459 -57.95530 11035 ft 346 kts 173°
2026-05-06 18:16 -37.41833 -57.94994 10624 ft 346 kts 173°
2026-05-06 18:16 -37.44201 -57.94460 10222 ft 345 kts 173°
2026-05-06 18:16 -37.46563 -57.93928 9818 ft 345 kts 172°
2026-05-06 18:17 -37.48920 -57.93397 9403 ft 344 kts 172°
2026-05-06 18:17 -37.51270 -57.92864 8968 ft 342 kts 172°
2026-05-06 18:17 -37.53612 -57.92331 8539 ft 341 kts 170°
2026-05-06 18:17 -37.55914 -57.91809 8121 ft 341 kts 170°
2026-05-06 18:18 -37.58226 -57.91285 7699 ft 333 kts 169°
2026-05-06 18:18 -37.60480 -57.90776 7285 ft 326 kts 169°
2026-05-06 18:18 -37.62690 -57.90275 6864 ft 319 kts 169°
2026-05-06 18:18 -37.64856 -57.89785 6434 ft 314 kts 168°
2026-05-06 18:19 -37.66994 -57.89299 5995 ft 309 kts 168°
2026-05-06 18:19 -37.69096 -57.88823 5553 ft 305 kts 167°
2026-05-06 18:19 -37.71159 -57.88356 5104 ft 297 kts 166°
2026-05-06 18:19 -37.73163 -57.87904 4664 ft 288 kts 165°
2026-05-06 18:20 -37.75090 -57.87469 4151 ft 283 kts 165°
2026-05-06 18:20 -37.76959 -57.86840 3554 ft 274 kts 151°
2026-05-06 18:20 -37.78564 -57.85639 2966 ft 264 kts 135°
2026-05-06 18:20 -37.79811 -57.83996 2405 ft 253 kts 119°
2026-05-06 18:21 -37.80727 -57.82199 2245 ft 235 kts 117°
2026-05-06 18:21 -37.81578 -57.80547 2234 ft 214 kts 116°
2026-05-06 18:21 -37.82367 -57.79014 2239 ft 206 kts 116°
2026-05-06 18:21 -37.83137 -57.77507 2241 ft 202 kts 115°
2026-05-06 18:22 -37.83894 -57.76023 2245 ft 200 kts 115°
2026-05-06 18:22 -37.84633 -57.74581 2243 ft 189 kts 116°
2026-05-06 18:22 -37.85328 -57.73219 2267 ft 179 kts 115°
2026-05-06 18:22 -37.85995 -57.71912 2267 ft 174 kts 117°
2026-05-06 18:23 -37.86640 -57.70659 2221 ft 164 kts 117°
2026-05-06 18:23 -37.87220 -57.69521 2087 ft 147 kts 113°
2026-05-06 18:23 -37.87755 -57.68465 1920 ft 143 kts 116°
2026-05-06 18:23 -37.88287 -57.67417 1742 ft 140 kts 112°
2026-05-06 18:24 -37.88803 -57.66407 1569 ft 134 kts 114°
2026-05-06 18:24 -37.89307 -57.65415 1382 ft 134 kts 112°
2026-05-06 18:24 -37.89812 -57.64424 1198 ft 134 kts 114°
2026-05-06 18:24 -37.90317 -57.63432 1016 ft 134 kts 114°
2026-05-06 18:25 -37.90833 -57.62410 837 ft 142 kts 116°
2026-05-06 18:25 -37.91373 -57.61379 662 ft 139 kts 118°
2026-05-06 18:25 -37.91907 -57.60351 473 ft 139 kts 117°
2026-05-06 18:25 -37.92416 -57.59313 281 ft 138 kts 116°
2026-05-06 18:26 -37.92916 -57.58324 102 ft 137 kts 114°
2026-05-06 18:26 -37.93400 -57.57406 46 ft 107 kts 100°
2026-05-06 18:26 -37.93610 -57.56906 46 ft 40 kts 120°
2026-05-06 18:26 -37.93763 -57.56627 47 ft 38 kts 123°
2026-05-06 18:27 -37.93900 -57.56362 44 ft 22 kts 138°
2026-05-06 18:27 -37.94005 -57.56388 45 ft 19 kts 236°
2026-05-06 18:27 -37.94004 -57.56561 48 ft 25 kts 295°
2026-05-06 18:27 -37.93910 -57.56786 46 ft 33 kts 301°
2026-05-06 18:28 -37.93786 -57.57040 48 ft 35 kts 299°
2026-05-06 18:28 -37.93671 -57.57325 45 ft 38 kts 300°
2026-05-06 18:28 -37.93536 -57.57620 46 ft 40 kts 299°
2026-05-06 18:28 -37.93430 -57.57860 48 ft 19 kts 300°
2026-05-06 18:29 -37.93365 -57.58010 48 ft 18 kts 298°
2026-05-06 18:29 -37.93324 -57.58080 48 ft 3 kts 303°
2026-05-06 18:29 -37.93323 -57.58082 48 ft 0 kts 303°